Theta_e
340 339 339 340 339 337 336 337 337 338 337 337 335 333 331 328 332 333 332 333 332 332 331 332 333 332 330 329 329 328 327 325
338 336 335 335 335 335 334 335 336 336 335 334 333 331 329 327 329 332 331 333 332 333 331 332 332 331 330 329 328 326 324 324
333 333 333 333 333 332 332 332 331 332 333 332 330 328 326 327 327 330 329 331 332 331 331 331 330 329 328 327 327 324 324 322
332 331 331 333 332 331 330 329 329 329 328 328 328 328 326 323 323 324 324 326 328 328 329 329 328 329 328 325 323 323 321 321
329 329 329 329 330 329 327 326 325 326 328 328 327 326 327 324 324 323 324 324 324 324 325 325 325 325 324 324 323 322 321 321
328 328 327 325 323 322 322 324 324 324 322 322 322 321 322 321 321 322 323 323 323 323 323 323 323 323 322 322 322 321 321 320
326 325 324 323 324 323 321 320 320 320 320 320 320 320 321 322 320 317 317 315 315 316 318 319 320 320 320 320 319 321 320 316
324 324 325 324 323 322 322 321 320 319 318 317 317 316 317 318 320 317 317 319 318 318 318 317 315 316 316 317 318 319 318 316
326 325 324 323 322 321 321 321 320 318 315 315 315 315 315 316 317 314 315 314 314 314 315 315 315 318 317 317 318 318 318 316
326 325 324 323 322 321 321 321 319 318 314 314 314 314 314 314 314 314 314 312 313 313 313 314 315 316 317 319 317 317 318 317
326 324 323 322 321 321 321 320 319 317 315 314 314 314 313 313 312 312 311 311 311 312 313 313 315 315 315 317 316 316 317 317
324 323 321 321 321 320 320 318 317 315 315 314 314 313 312 311 311 311 310 310 309 312 313 314 314 314 314 316 314 315 315 316
322 321 320 321 320 318 317 316 316 315 313 313 312 311 311 312 312 312 311 310 310 313 311 312 312 312 313 313 313 313 315 316
319 318 320 319 318 317 315 315 314 313 312 311 311 311 312 312 312 312 311 311 311 312 312 311 310 311 312 312 313 312 313 313
319 321 320 318 317 315 314 313 312 311 310 312 312 311 311 312 311 311 310 311 311 310 310 309 311 311 311 311 311 312 313 313
321 321 319 317 315 313 313 312 311 310 311 311 310 308 310 309 310 309 309 308 311 309 310 310 310 311 310 311 312 312 312 313
321 320 317 313 313 312 311 310 310 310 311 309 309 309 309 308 308 307 309 309 309 309 310 310 310 309 308 310 310 310 311 311
318 316 313 314 312 311 311 311 311 310 309 309 308 308 306 305 306 306 306 307 307 308 308 308 308 308 308 310 309 310 310 310
315 314 313 312 312 312 311 311 310 310 309 308 307 306 305 305 304 304 304 305 306 307 308 306 307 309 309 309 308 308 308 309
314 313 312 311 310 310 310 309 308 308 307 308 307 305 305 305 304 302 304 304 305 307 307 308 306 306 308 309 310 310 310 310
Wind_Speed
14 13 11 11 11 11 8 8 6 10 6 0 4 9 10 12 10 7 8 10 9 11 12 17 13 9 9 12 12 8 8 12
12 12 12 12 14 14 13 10 12 9 9 11 6 4 2 4 8 10 11 12 14 13 14 11 6 4 9 10 11 9 12 16
14 13 12 14 14 15 14 14 12 10 5 8 4 6 8 9 14 9 14 12 15 14 14 13 16 11 15 14 12 14 19 11
13 13 13 15 13 13 12 14 14 13 11 8 6 3 2 11 14 18 17 15 18 20 18 21 23 22 18 15 17 21 22 9
13 11 12 10 10 8 10 10 10 9 6 5 3 2 3 6 11 15 16 16 17 18 20 21 22 23 24 27 27 29 23 12
11 12 13 13 13 15 16 16 14 15 14 15 10 11 7 8 9 12 13 14 15 15 18 20 17 15 15 18 20 23 21 18
13 13 14 14 15 13 13 14 14 13 13 10 11 13 12 11 14 17 15 15 14 15 16 17 19 21 26 21 21 19 19 12
12 13 15 11 12 12 13 13 15 12 12 12 11 11 11 12 9 11 13 11 13 16 16 18 18 16 20 21 22 17 13 15
9 12 11 12 11 12 12 13 15 15 16 13 13 13 12 10 10 11 13 12 13 14 14 13 16 19 17 16 15 13 12 8
9 8 7 8 9 8 12 14 15 16 16 14 13 13 11 12 7 16 6 12 13 13 13 14 13 15 14 18 16 14 10 10
9 5 5 6 6 9 12 14 14 15 18 16 15 13 13 13 16 17 19 18 14 17 14 14 14 13 15 16 14 13 10 10
7 5 6 6 8 11 12 13 14 16 18 19 17 17 18 17 14 15 19 16 15 12 13 12 15 13 13 16 11 11 12 11
9 13 12 7 7 11 14 14 16 16 19 18 16 17 18 17 16 15 16 15 16 10 13 12 12 12 13 13 10 10 10 11
9 12 7 9 12 13 17 16 18 20 19 17 18 19 17 17 15 14 14 16 13 12 12 12 11 10 8 8 7 9 10 12
5 5 14 12 13 11 18 18 19 17 21 19 20 18 17 16 15 14 16 14 14 15 13 11 10 9 8 8 8 6 7 9
5 9 10 13 15 17 13 15 16 20 18 18 17 17 15 17 18 18 15 14 14 13 10 8 8 7 8 9 7 6 6 6
9 9 9 15 13 16 10 16 17 20 17 17 17 19 19 18 19 15 14 15 14 14 8 7 7 7 8 9 8 5 3 2
8 10 13 12 17 15 16 17 18 18 16 17 18 17 17 19 18 15 14 12 11 8 7 7 5 6 6 8 12 8 6 7
11 12 16 16 15 18 18 17 18 16 17 18 15 16 19 16 17 14 12 11 6 7 8 10 9 7 8 9 10 13 11 8
14 18 17 17 18 18 17 16 16 17 17 15 15 18 18 15 17 14 12 8 7 9 9 10 11 8 9 7 5 6 5 6
Wind_Direction
81 77 68 68 59 70 51 70 61 13 15 325 268 261 265 198 230 259 250 266 263 271 276 289 287 299 311 295 326 338 300 331
90 86 73 66 61 63 57 52 49 44 33 47 61 126 126 253 273 236 239 266 269 257 257 294 286 245 244 254 249 245 296 321
83 87 80 67 66 62 55 55 67 71 83 53 22 210 205 219 231 256 238 242 253 248 255 252 260 255 240 235 246 285 308 318
88 79 79 72 62 58 52 43 37 40 43 41 24 352 248 246 246 254 269 263 262 261 249 245 252 243 242 254 282 297 306 302
78 83 85 83 81 71 56 44 46 45 41 55 73 353 340 277 269 276 285 289 285 279 273 270 268 266 272 280 286 284 293 276
86 82 81 75 65 56 48 45 34 29 26 13 14 8 351 337 321 305 298 293 288 286 283 277 277 283 301 295 287 292 281 265
86 83 73 64 54 53 44 38 29 29 18 14 2 351 342 340 339 336 328 327 325 315 298 291 288 288 290 282 289 280 274 257
79 66 65 66 54 39 32 25 22 20 6 1 345 339 332 329 319 322 324 322 337 326 324 324 318 306 291 278 273 274 259 276
103 81 71 72 59 24 18 15 12 16 7 4 354 345 340 327 327 329 324 331 322 315 310 299 301 297 296 280 275 266 256 269
111 94 87 72 43 29 4 9 6 5 7 0 353 345 339 329 333 336 309 328 314 300 301 293 300 286 286 285 269 246 235 247
113 72 67 50 32 9 358 1 360 3 1 351 343 343 331 334 324 314 318 321 312 313 301 295 295 293 287 290 278 248 238 250
68 61 22 17 1 353 359 353 358 355 355 348 344 339 337 332 330 320 325 318 323 310 294 291 286 282 281 287 279 249 246 255
53 35 11 340 348 5 1 347 348 349 343 341 336 330 328 326 319 319 324 328 316 309 307 300 301 294 280 291 286 255 254 258
18 332 356 346 355 355 345 345 346 345 342 334 335 323 325 321 322 329 328 325 321 308 311 310 311 313 309 312 300 276 269 259
5 313 330 10 358 345 342 345 347 339 331 334 329 325 335 331 331 332 334 328 317 312 315 317 327 327 332 330 333 318 281 253
334 8 354 347 344 340 344 348 342 341 345 337 333 336 339 337 330 327 328 328 328 329 336 338 348 358 358 356 339 330 301 295
3 359 355 344 349 348 359 340 344 336 340 346 350 347 338 330 324 323 315 319 321 327 339 351 9 25 20 31 12 351 359 341
21 357 341 350 359 1 352 350 342 338 345 352 345 342 344 345 339 336 338 332 331 4 20 23 23 46 42 50 33 35 60 70
353 350 359 11 2 348 343 343 346 350 355 350 357 356 350 349 353 348 346 350 358 19 31 31 35 33 28 24 28 48 58 56
352 354 12 5 359 348 351 348 348 0 354 357 2 339 347 354 0 354 2 5 17 34 20 23 15 21 20 13 15 0 3 359